Home   Weather   Cheyenne   Past weeks

Flag for USA Past Weather in Cheyenne, Wyoming, USA — Yesterday and Last 2 Weeks

Now
42 °F

Clear.


Feels Like: 37 °F
Forecast: 39 / 69 °F
Wind: 8 mph from Southwest

Location: Cheyenne Airport

Current Time: Sep 26, 2016 at 1:00:43 AM

Latest Report: Sep 25, 2016 at 11:53 PM


Visibility: 10 mi

Pressure: 30.36 "Hg (24.18 "Hg at 1855m altitude)

Humidity: 73%

Dew Point: 34 °F

Location of CheyenneLocation

Past Weather in Cheyenne — Graph

°F

Cheyenne Temperature Yesterday

Maximum temperature yesterday: 63 °F (at 3:53 PM)
Minimum temperature yesterday: 38 °F (at 6:53 AM)
Average temperature yesterday: 50 °F

High & Low Weather Summary for the Past Weeks

 TemperatureHumidityPressure
High88 °F (Sep 11, 2:53 PM)100% (Sep 14, 5:53 AM)30.39 "Hg (Sep 14, 5:53 AM)
Low37 °F (Sep 24, 5:53 AM)7% (Sep 11, 11:53 AM)29.55 "Hg (Sep 23, 1:53 PM)
Average58 °F51%29.96 "Hg
* Reported Sep 10 11:53 PM — Sep 25 11:53 PM, Cheyenne, Weather by CustomWeather, © 2016

Note: Actual official high and low records may vary slightly from our data, if they occured in-between our weather recording intervals... More about our weather records

Advertising

Cheyenne Weather History for the Previous 24 Hours

Scroll right to see more
 ConditionsComfort  
Time TempWeatherWind HumidityBarometerVisibility
11:53 PM
Sun, Sep 25
42 °FClear.8 mph73%30.36 "Hg10 mi
10:53 PM46 °FClear.3 mph58%30.35 "Hg10 mi
9:53 PM49 °FClear.5 mph55%30.34 "Hg10 mi
8:53 PM49 °FClear.5 mph52%30.37 "Hg10 mi
7:53 PM54 °FClear.5 mph41%30.34 "Hg10 mi
6:53 PM58 °FClear.14 mph35%30.31 "Hg10 mi
5:53 PM62 °FSunny.10 mph27%30.27 "Hg10 mi
4:53 PM63 °FSunny.13 mph26%30.26 "Hg10 mi
3:53 PM63 °FSunny.13 mph28%30.25 "Hg10 mi
2:53 PM61 °FSunny.14 mph30%30.25 "Hg10 mi
1:53 PM61 °FSunny.13 mph27%30.27 "Hg10 mi
12:53 PM59 °FPassing clouds.10 mph31%30.30 "Hg10 mi
11:53 AM56 °FPassing clouds.13 mph36%30.34 "Hg10 mi
10:53 AM53 °FScattered clouds.12 mph43%30.36 "Hg10 mi
9:53 AM52 °FSunny.13 mph45%30.38 "Hg10 mi
8:53 AM49 °FSunny.14 mph55%30.39 "Hg10 mi
7:53 AM41 °FSunny.6 mph67%30.39 "Hg10 mi
6:53 AM38 °FSunny.9 mph76%30.39 "Hg10 mi
5:53 AM39 °FClear.6 mph73%30.35 "Hg10 mi
4:53 AM41 °FClear.7 mph67%30.29 "Hg10 mi
3:53 AM43 °FClear.12 mph65%30.25 "Hg10 mi
2:53 AM44 °FClear.17 mph63%30.22 "Hg10 mi
1:53 AM44 °FClear.15 mph65%30.21 "Hg10 mi
Weather by CustomWeather, © 2016

See weather overviewHow to use our weather pages